Location: Woodhurst
(52.3667°N, 0.0667°W)
Time: 06:09:25
(UTC+00:00)

Cosmos 1980 Rocket - Pass Details

Date: 19 May 2025
Orbit: 829 x 847 km, 71.0° (Epoch: 13 June)

Event Time Altitude Azimuth Distance (km) Brightness Sun altitude
Rises 20:43:42 0° 329° (NNW) 3,385 7.2 -6.4°
Reaches altitude 10° 20:46:15 10° 336° (NNW) 2,448 6.0 -6.7°
Maximum altitude 20:51:38 46° 49° (NE) 1,113 2.9 -7.2°
Drops below altitude 10° 20:57:00 10° 123° (ESE) 2,440 4.0 -7.8°
Enters shadow 20:57:18 - 124° (SE) 2,549 4.1 -7.8°
